Waarnemingen

Advertentie
Mijn weer
Trapani/Birgi, Italië (16429): temperatuur & dauwpunt: 12.02.2019 01:00:00 - 18.02.2019 01:00:00 (CET)Trapani/Birgi, Italië (16429): windsnelheid: 12.02.2019 01:00:00 - 18.02.2019 01:00:00 (CET)Trapani/Birgi, Italië (16429): windrichting: 12.02.2019 01:00:00 - 18.02.2019 01:00:00 (CET)Trapani/Birgi, Italië (16429): luchtdruk: 12.02.2019 01:00:00 - 18.02.2019 01:00:00 (CET)Trapani/Birgi, Italië (16429): zicht: 12.02.2019 01:00:00 - 18.02.2019 01:00:00 (CET)Trapani/Birgi, Italië (16429): Zonneschijnduur: 12.02.2019 01:00:00 - 18.02.2019 01:00:00 (CET)
Datum & Tijd tt [°C] td [°C] ff [km/u] ff [kn] dd ppp [hPa] vv [km] sd [min]
18.02.2019 01:00:00 7,4 6,7 11 6 O 1028,2 12 -
18.02.2019 00:00:00 7,8 6,7 9 5 O 1028,4 12 -
17.02.2019 23:00:00 7,8 6,9 9 5 O 1028,5 12 -
17.02.2019 22:00:00 7,8 6,7 8 4 O 1028,5 12 -
17.02.2019 21:00:00 8,6 7,5 2 1 NO 1028,4 12 -
17.02.2019 20:00:00 10,2 8,8 8 4 ONO 1028,4 12 -
17.02.2019 19:00:00 10,2 7,8 8 4 NO 1028,1 10 -
17.02.2019 18:00:00 11,0 8,0 9 5 NNO 1027,9 15 0
17.02.2019 17:00:00 14,0 9,2 18 10 N 1027,8 25 60
17.02.2019 16:00:00 14,0 8,6 16 9 N 1028,1 25 60
17.02.2019 15:00:00 14,0 8,4 22 12 NNW 1028,3 25 60
17.02.2019 14:00:00 14,0 7,8 21 11 N 1028,8 25 60
17.02.2019 13:00:00 14,0 7,8 16 9 NNW 1029,5 25 60
17.02.2019 12:00:00 14,0 6,8 15 8 NW 1030,0 25 60
17.02.2019 11:00:00 14,0 5,1 5 3 NO 1030,3 25 60
17.02.2019 10:00:00 12,0 6,3 8 4 O 1030,5 25 60
17.02.2019 09:00:00 9,0 6,6 5 3 O 1030,3 18 60
17.02.2019 08:00:00 5,0 4,3 11 6 ZO 1030,6 20 30
17.02.2019 07:00:00 5,2 4,5 9 5 OZO 1030,2 16 -
17.02.2019 06:00:00 5,8 5,4 11 6 OZO 1029,7 12 -
17.02.2019 05:00:00 5,2 4,8 9 5 ZO 1029,5 12 -
17.02.2019 04:00:00 5,4 5,0 8 4 OZO 1029,7 12 -
17.02.2019 03:00:00 5,8 5,2 8 4 OZO 1029,8 12 -
17.02.2019 02:00:00 6,0 5,6 4 2 O 1030,2 12 -
17.02.2019 01:00:00 6,0 5,6 8 4 O 1030,2 12 -
17.02.2019 00:00:00 5,4 5,0 4 2 N 1030,2 12 -
16.02.2019 23:00:00 6,0 5,4 5 3 N 1030,4 12 -
16.02.2019 22:00:00 8,4 5,5 5 3 N 1030,5 12 -
16.02.2019 21:00:00 10,0 7,6 4 2 N 1030,4 12 -
16.02.2019 20:00:00 9,8 7,2 4 2 N 1030,2 12 -
16.02.2019 19:00:00 9,4 6,3 8 4 NNO 1029,6 20 -
16.02.2019 18:00:00 11,0 6,4 9 5 NNO 1029,3 22 12
16.02.2019 17:00:00 13,2 5,4 15 8 N 1029,2 22 60
16.02.2019 16:00:00 14,0 5,6 21 11 N 1029,2 22 60
16.02.2019 15:00:00 14,0 5,1 26 14 N 1029,2 22 60
16.02.2019 14:00:00 14,0 5,6 21 11 N 1029,2 22 60
16.02.2019 13:00:00 14,4 3,8 11 6 NO 1029,5 22 60
16.02.2019 12:00:00 15,0 4,1 15 8 ONO 1029,6 10 60
16.02.2019 11:00:00 14,2 4,5 15 8 ONO 1029,4 22 60
16.02.2019 10:00:00 13,2 5,1 13 7 ONO 1029,2 22 60
16.02.2019 09:00:00 10,8 4,1 4 2 N 1029,1 22 36
16.02.2019 08:00:00 6,0 4,7 4 2 ZO 1028,1 20 0
16.02.2019 07:00:00 5,2 3,7 5 3 Z 1027,2 10 0
16.02.2019 06:00:00 6,0 4,5 5 3 N 1026,8 20 -
16.02.2019 05:00:00 6,2 4,7 4 2 N 1026,3 20 -
16.02.2019 04:00:00 7,6 5,6 8 4 NO 1026,1 20 -
16.02.2019 03:00:00 8,2 5,8 8 4 NO 1025,9 20 -
16.02.2019 02:00:00 9,8 6,7 8 4 NNO 1025,6 20 -
16.02.2019 01:00:00 10,0 6,4 8 4 NO 1025,2 20 -
16.02.2019 00:00:00 10,2 6,0 16 9 NNO 1025,0 20 -
15.02.2019 23:00:00 10,2 6,9 13 7 NNO 1024,9 20 -
15.02.2019 22:00:00 10,2 7,6 15 8 NO 1024,9 20 -
15.02.2019 21:00:00 10,2 8,3 13 7 NNO 1024,2 20 -
15.02.2019 20:00:00 11,2 9,6 4 2 N 1024,2 20 -
15.02.2019 19:00:00 12,2 10,9 5 3 N 1024,4 12 -
15.02.2019 18:00:00 13,2 11,6 11 6 N 1024,2 20 18
15.02.2019 17:00:00 14,0 11,2 16 9 NNW 1023,8 20 60
15.02.2019 16:00:00 15,0 11,8 18 10 NW 1024,1 20 60
15.02.2019 15:00:00 15,0 11,6 18 10 NNW 1024,8 10 60
15.02.2019 14:00:00 15,0 12,0 15 8 NNW 1025,4 20 60
15.02.2019 13:00:00 14,8 11,4 15 8 NNW 1026,4 20 60
15.02.2019 12:00:00 14,0 10,4 16 9 NNW 1027,3 20 60
15.02.2019 11:00:00 14,0 10,2 18 10 NNW 1027,9 20 60
15.02.2019 10:00:00 13,6 9,8 18 10 NNW 1027,9 20 48
15.02.2019 09:00:00 13,2 10,0 15 8 NNW 1028,3 20 42
15.02.2019 08:00:00 10,0 8,1 8 4 N 1028,2 20 0
15.02.2019 07:00:00 7,0 5,5 8 4 NNO 1028,2 18 0
15.02.2019 06:00:00 6,4 4,9 4 2 N 1028,3 15 -
15.02.2019 05:00:00 7,0 5,5 5 3 N 1029,2 12 -
15.02.2019 04:00:00 5,6 5,0 4 2 OZO 1029,2 15 -
15.02.2019 03:00:00 5,6 5,3 8 4 O 1029,3 15 -
15.02.2019 02:00:00 6,6 6,2 4 2 N 1029,4 15 -
15.02.2019 01:00:00 9,0 8,1 5 3 NNO 1030,2 15 -
15.02.2019 00:00:00 9,0 8,1 9 5 N 1030,6 15 -
14.02.2019 23:00:00 10,2 8,5 9 5 N 1031,1 15 -
14.02.2019 22:00:00 11,0 8,2 16 9 N 1031,2 15 -
14.02.2019 21:00:00 11,0 8,9 15 8 N 1031,2 15 -
14.02.2019 20:00:00 11,0 7,7 16 9 N 1031,2 15 -
14.02.2019 19:00:00 11,2 7,5 16 9 N 1031,2 10 -
14.02.2019 18:00:00 12,2 7,9 15 8 N 1031,2 30 6
14.02.2019 17:00:00 13,2 7,9 24 13 N 1031,2 10 60
14.02.2019 16:00:00 13,6 7,8 29 16 N 1031,2 30 60
14.02.2019 15:00:00 13,6 7,2 24 13 N 1031,2 10 60
14.02.2019 14:00:00 13,6 6,2 24 13 N 1031,4 30 60
14.02.2019 13:00:00 13,2 5,6 22 12 N 1031,9 30 60
14.02.2019 12:00:00 13,0 5,9 21 11 N 1032,1 30 60
14.02.2019 11:00:00 12,4 4,9 26 14 N 1032,2 30 60
14.02.2019 10:00:00 12,0 5,6 9 5 NW 1032,2 30 60
14.02.2019 09:00:00 11,2 5,7 2 1 Z 1031,4 30 60
14.02.2019 08:00:00 8,6 3,4 15 8 NNO 1031,1 25 12
14.02.2019 07:00:00 6,0 3,8 13 7 ZZO 1030,6 15 0
14.02.2019 06:00:00 7,0 3,1 5 3 N 1030,2 12 -
14.02.2019 05:00:00 8,0 2,9 11 6 N 1029,5 12 -
14.02.2019 04:00:00 10,0 4,8 15 8 NNO 1029,3 12 -
14.02.2019 03:00:00 10,0 4,8 18 10 NNO 1029,3 12 -
14.02.2019 02:00:00 9,0 5,4 11 6 NNO 1029,4 12 -
14.02.2019 01:00:00 9,0 5,4 15 8 NNO 1029,4 12 -
14.02.2019 00:00:00 9,0 4,6 22 12 N 1029,6 12 -
13.02.2019 23:00:00 10,8 6,5 22 12 N 1029,8 12 -
13.02.2019 22:00:00 11,0 6,2 26 14 N 1029,8 12 -
13.02.2019 21:00:00 11,0 5,7 29 16 N 1029,6 12 -
13.02.2019 20:00:00 11,0 5,7 28 15 N 1029,4 12 -
13.02.2019 19:00:00 11,0 5,5 5 3 N 1029,3 15 0
13.02.2019 18:00:00 11,0 5,3 31 17 N 1029,1 20 24
13.02.2019 17:00:00 11,2 5,5 28 15 N 1029,0 20 60
13.02.2019 16:00:00 12,0 2,5 29 16 N 1029,2 20 60
13.02.2019 15:00:00 13,0 4,9 31 17 N 1029,2 20 60
13.02.2019 14:00:00 13,0 4,9 34 18 N 1029,6 20 60
13.02.2019 13:00:00 13,0 3,9 29 16 N 1029,9 25 60
13.02.2019 12:00:00 12,8 4,0 31 17 N 1030,0 25 60
13.02.2019 11:00:00 12,0 3,7 29 16 N 1029,9 25 60
13.02.2019 10:00:00 12,2 4,7 24 13 NNO 1029,3 20 48
13.02.2019 09:00:00 10,0 3,7 16 9 NNO 1029,1 25 30
13.02.2019 08:00:00 8,2 4,0 16 9 NNO 1028,7 25 18
13.02.2019 07:00:00 7,0 5,0 2 1 NNO 1028,1 16 0
13.02.2019 06:00:00 8,8 7,4 9 5 NNO 1027,3 12 -
13.02.2019 05:00:00 10,2 8,5 15 8 N 1026,8 12 -
13.02.2019 04:00:00 9,0 7,4 15 8 N 1026,9 12 -
13.02.2019 03:00:00 8,0 6,1 5 3 NO 1026,7 12 -
13.02.2019 02:00:00 8,4 4,2 8 4 NO 1026,6 12 -
13.02.2019 01:00:00 9,0 4,8 9 5 NNO 1026,6 12 -
13.02.2019 00:00:00 10,2 4,6 11 6 NNW 1026,2 12 -
12.02.2019 23:00:00 11,8 4,1 22 12 N 1025,9 12 -
12.02.2019 22:00:00 11,4 3,4 16 9 N 1025,4 12 -
12.02.2019 21:00:00 12,2 3,4 26 14 N 1025,2 12 -
12.02.2019 20:00:00 12,2 3,9 28 15 N 1025,3 12 -
12.02.2019 19:00:00 11,8 5,4 22 12 N 1024,7 10 -
12.02.2019 18:00:00 11,8 5,4 18 10 NNW 1024,0 12 -
12.02.2019 17:00:00 13,4 4,6 21 11 N 1023,6 20 60
12.02.2019 16:00:00 13,2 3,8 26 14 N 1023,0 20 60
12.02.2019 15:00:00 13,0 2,8 34 18 N 1022,3 10 60
12.02.2019 14:00:00 13,0 4,7 28 15 N 1022,2 20 60
12.02.2019 13:00:00 13,2 5,4 31 17 N 1022,2 20 60
12.02.2019 12:00:00 13,0 5,4 34 18 N 1022,4 18 60
12.02.2019 11:00:00 13,0 5,9 29 16 N 1021,8 20 60
12.02.2019 10:00:00 12,0 5,6 29 16 N 1021,3 20 36
12.02.2019 09:00:00 11,0 8,2 18 10 NNO 1020,4 18 0
12.02.2019 08:00:00 12,0 4,5 28 15 N 1019,4 20 0
12.02.2019 07:00:00 10,6 6,2 34 18 NW 1018,3 14 0
12.02.2019 06:00:00 11,0 6,7 24 13 WNW 1018,3 12 -
12.02.2019 05:00:00 10,2 5,6 15 8 WNW 1018,1 12 -
12.02.2019 04:00:00 10,4 7,1 22 12 WNW 1018,2 12 -
12.02.2019 03:00:00 11,4 8,6 24 13 WNW 1018,3 12 -
12.02.2019 02:00:00 11,0 5,8 34 18 NW 1018,6 12 -
12.02.2019 01:00:00 11,8 6,1 34 18 NW 1018,3 12 -

tt = temperatuur
td = dauwpunt
ff = windsnelheid
dd = windrichting
ppp = luchtdruk
vv = zicht
sd = Zonneschijnduur

Weerstations in de omgeving